Dewpoint
50 34 33 32 30 34 34 30 24 25 32 29 33 32 41 48 49 53 54 59 65 69 74 75 78 78 77 77 77 76 76 76 76 76 76 76 76 76 76 75 74 72 70 69 69 69 70 70 70
36 32 32 30 30 31 32 31 24 23 34 34 34 34 35 51 54 56 52 62 64 70 73 74 78 78 78 77 77 76 76 76 76 76 76 76 76 76 75 75 73 71 69 68 67 68 68 69 70
36 32 29 29 31 30 31 34 36 29 32 34 34 35 41 50 55 54 55 63 64 68 70 76 77 77 78 78 77 77 76 76 76 76 76 76 76 76 75 74 72 70 68 67 66 66 66 66 66
28 29 26 26 31 33 31 33 37 33 31 33 32 34 44 50 54 56 55 62 63 64 68 76 77 77 77 78 77 77 76 76 76 76 76 76 76 76 75 74 72 70 69 67 67 67 66 65 65
27 26 24 29 30 31 34 33 40 35 31 31 32 35 48 54 56 55 55 59 60 61 71 74 77 77 77 77 77 77 76 76 76 76 76 76 75 75 74 73 71 70 70 68 67 67 67 67 66
25 25 23 26 30 32 33 38 38 37 34 34 30 34 51 55 52 52 54 58 59 63 71 73 76 77 77 76 77 77 76 76 76 76 76 76 75 74 73 72 71 70 70 69 68 67 67 68 68
23 23 21 23 27 29 32 38 38 35 34 35 36 34 52 53 53 52 55 57 59 66 69 71 72 75 77 76 76 76 76 76 76 75 75 75 74 74 73 72 72 71 70 69 69 68 68 68 68
20 22 22 22 23 25 29 36 33 33 33 37 37 38 47 55 56 56 54 53 57 61 67 68 70 71 73 75 76 76 76 76 75 75 75 74 74 73 73 72 72 71 71 70 69 69 69 69 69
17 18 20 22 22 24 28 30 29 30 29 35 36 38 49 53 54 54 54 52 55 58 66 65 65 68 68 70 74 76 76 76 75 75 75 73 70 70 70 70 72 72 71 71 70 70 70 70 70
16 15 15 20 22 22 23 26 26 26 28 29 33 34 40 48 50 52 53 52 53 56 63 63 65 66 64 60 72 73 73 73 73 72 73 70 68 68 65 68 72 73 72 72 71 71 71 70 64
14 14 13 13 16 20 22 24 25 25 26 27 31 34 33 40 46 48 50 52 52 56 59 63 67 67 62 57 70 68 69 70 70 70 72 71 65 68 65 70 68 71 72 68 70 69 68 64 63
11 15 15 12 9 16 20 26 25 25 26 26 27 28 30 32 34 39 47 52 52 55 58 64 66 68 67 61 66 64 64 67 68 68 71 70 69 70 67 68 67 69 68 67 68 67 68 68 68
11 12 13 12 11 12 15 21 25 24 26 25 25 26 27 34 37 39 40 45 51 54 59 62 66 69 69 74 66 62 63 63 65 66 68 69 67 71 70 69 67 68 66 68 69 68 66 68 70
15 13 12 13 12 13 14 14 16 19 17 19 22 22 23 25 32 38 45 48 52 63 62 67 65 72 70 72 76 69 66 67 66 66 67 69 70 71 69 70 70 70 68 67 67 67 68 68 68
13 14 15 15 14 14 14 14 14 14 14 17 19 22 23 26 27 34 48 54 51 61 62 64 69 72 72 72 74 76 70 65 66 67 70 69 71 72 71 68 70 70 70 68 69 69 68 68 66
12 14 12 13 13 14 13 13 14 14 16 16 17 19 21 25 26 36 41 50 63 59 65 66 63 71 73 73 72 72 71 69 69 67 70 71 70 72 72 70 68 68 67 67 66 66 66 65 64
13 9 11 9 9 11 11 11 12 12 18 20 22 22 22 24 35 43 42 56 63 60 64 70 71 70 73 74 73 74 73 74 72 70 68 73 71 71 72 68 68 70 68 68 67 67 66 65 65
11 9 8 8 9 10 10 11 12 13 15 20 21 23 25 25 29 38 44 47 56 56 66 68 73 73 76 73 74 73 72 72 71 71 70 72 73 72 72 72 70 72 68 68 68 68 67 66 66
12 10 11 11 8 11 14 14 13 15 16 18 21 25 29 29 31 39 46 47 47 53 60 63 70 76 75 74 72 72 71 71 71 70 71 72 74 73 72 71 73 72 69 69 70 68 69 66 68
12 11 12 13 13 12 13 13 15 16 18 20 21 26 28 30 31 35 45 49 52 56 58 62 65 71 74 74 74 72 71 70 71 70 70 72 72 73 72 72 72 71 69 70 70 71 67 68 70
13 14 14 13 11 12 13 13 16 16 18 19 21 26 28 30 32 38 39 49 52 52 58 59 64 67 71 72 73 74 72 72 69 69 70 70 71 71 72 72 72 70 69 68 71 72 70 66 70
12 12 10 10 11 9 14 10 19 19 19 20 21 25 26 28 33 36 41 49 49 49 52 59 61 62 64 70 69 70 72 70 67 69 68 70 71 70 71 71 70 71 68 69 70 71 71 70 68
10 9 10 12 13 14 12 10 13 17 15 19 23 24 27 28 29 30 33 41 43 50 52 57 62 64 65 68 70 66 67 65 67 68 70 73 70 70 68 70 70 70 68 70 69 71 72 71 67
12 11 13 15 15 14 16 14 13 13 19 20 22 23 25 24 26 32 39 43 45 47 50 59 62 65 65 66 67 68 68 66 67 67 68 67 65 70 69 68 68 69 70 68 70 71 71 69 68
12 16 13 14 13 13 15 13 19 22 20 20 22 22 26 31 32 34 36 37 46 48 52 52 58 60 63 64 65 65 67 68 67 66 67 68 65 67 70 70 69 69 68 69 69 69 70 70 68
18 20 14 15 15 14 19 20 22 30 26 25 23 31 33 33 34 36 37 40 38 46 51 52 55 57 58 59 62 65 66 62 62 65 65 64 64 65 67 71 66 63 62 64 68 69 69 68 69
20 20 22 23 22 20 22 23 26 28 28 26 25 28 33 38 38 36 35 38 42 48 53 55 56 56 57 59 62 64 64 64 63 66 66 64 67 65 65 67 67 62 58 59 63 69 68 68 69
23 22 24 24 23 22 21 22 22 33 31 32 31 28 34 38 36 35 36 41 43 44 52 55 55 53 52 57 59 57 63 61 63 63 65 66 67 66 66 67 64 59 59 59 65 67 68 68 68
26 23 25 28 28 32 28 26 35 35 38 38 35 33 36 36 35 34 33 36 36 38 38 52 51 50 51 55 51 59 59 60 60 61 61 62 64 66 65 66 65 65 65 61 60 59 60 67 67
33 32 31 35 32 32 32 30 38 37 37 41 39 37 38 35 33 31 32 36 38 41 42 44 50 48 49 50 52 53 58 59 60 60 60 61 60 61 61 63 63 63 61 58 56 54 61 61 64
Lifted_Index
9 8 7 6 4 3 2 2 1 0 -0 0 2 2 -0 -2 -3 -3 -2 -2 -3 -4 -5 -5 -6 -6 -6 -5 -4 -4 -3 -2 -2 -2 -2 -2 -2 -2 -2 -1 -1 1 2 2 2 2 1 0 -0
9 8 7 5 4 3 2 1 1 -0 -0 1 2 2 -0 -2 -3 -2 -2 -2 -3 -4 -5 -5 -6 -6 -6 -6 -5 -4 -3 -3 -2 -2 -2 -2 -2 -2 -2 -1 -0 1 2 3 3 2 2 1 1
8 8 6 5 4 3 2 0 -0 -0 0 1 2 1 -0 -2 -2 -2 -2 -2 -3 -4 -4 -5 -6 -6 -6 -6 -5 -5 -4 -3 -3 -3 -2 -2 -2 -2 -2 -1 0 1 2 3 3 3 3 2 2
8 7 6 5 4 3 2 0 -1 -0 0 1 1 1 -1 -2 -2 -2 -2 -2 -3 -3 -4 -5 -6 -6 -6 -6 -6 -5 -5 -4 -4 -3 -3 -3 -3 -2 -2 -1 0 1 2 2 2 3 3 3 3
7 7 5 4 3 3 2 0 -1 -0 -0 0 0 -0 -1 -2 -2 -2 -2 -2 -2 -3 -4 -5 -6 -6 -6 -6 -6 -6 -5 -5 -5 -4 -4 -3 -3 -2 -2 -1 0 1 1 1 2 2 2 3 3
7 6 5 4 3 2 1 0 -0 -0 -0 -0 -0 -1 -2 -2 -2 -1 -2 -2 -2 -3 -5 -5 -5 -6 -6 -6 -6 -6 -6 -6 -5 -5 -4 -4 -3 -2 -2 -1 -0 0 0 1 1 1 2 2 3
7 6 5 4 3 2 1 0 0 0 -0 -0 -0 -1 -3 -2 -1 -1 -2 -2 -3 -4 -5 -5 -5 -5 -6 -6 -6 -6 -6 -6 -6 -5 -5 -4 -3 -3 -2 -1 -1 -1 -0 0 0 1 1 2 2
7 6 5 4 3 2 1 0 0 0 0 0 0 -1 -2 -2 -2 -2 -2 -2 -2 -4 -4 -4 -4 -4 -5 -6 -6 -6 -6 -6 -6 -5 -5 -4 -3 -3 -2 -2 -1 -1 -1 -0 -0 0 0 1 1
7 6 6 5 3 2 1 0 0 1 1 1 1 0 -1 -2 -2 -3 -3 -2 -2 -3 -4 -4 -3 -4 -4 -5 -6 -6 -6 -6 -6 -5 -5 -4 -3 -3 -2 -2 -2 -2 -2 -1 -1 -1 -1 -0 0
6 6 6 5 4 2 1 0 1 1 2 2 2 2 1 -1 -2 -3 -3 -3 -3 -3 -4 -4 -3 -3 -3 -3 -5 -6 -6 -6 -6 -5 -5 -4 -3 -2 -2 -2 -3 -3 -3 -3 -2 -2 -2 -1 -1
5 6 5 5 3 2 1 1 1 2 3 3 2 2 2 1 -0 -2 -2 -3 -3 -3 -3 -4 -4 -3 -2 -2 -4 -4 -5 -5 -5 -5 -5 -4 -3 -3 -3 -3 -3 -4 -4 -3 -3 -3 -3 -2 -2
5 5 5 4 3 2 2 2 2 3 4 4 3 3 3 4 3 1 -0 -2 -2 -3 -3 -4 -4 -4 -4 -3 -3 -3 -3 -4 -4 -4 -4 -4 -4 -3 -4 -4 -4 -4 -4 -3 -3 -3 -3 -4 -4
4 4 4 4 3 2 3 3 3 4 5 5 5 5 5 6 5 4 2 -0 -2 -3 -3 -4 -5 -5 -5 -5 -5 -3 -3 -3 -4 -4 -4 -4 -4 -4 -4 -5 -5 -4 -4 -4 -4 -4 -4 -4 -5
3 3 4 4 3 4 4 5 5 6 6 6 6 6 6 6 6 5 3 1 -1 -2 -3 -3 -5 -7 -7 -7 -7 -6 -5 -4 -4 -5 -5 -5 -5 -5 -5 -5 -5 -5 -4 -4 -4 -4 -4 -4 -4
3 3 4 4 4 4 5 6 6 6 6 7 7 7 7 6 6 5 4 3 1 -2 -3 -4 -5 -7 -8 -8 -8 -8 -7 -6 -6 -6 -6 -7 -7 -7 -7 -6 -6 -5 -5 -4 -4 -4 -4 -3 -3
4 4 4 4 4 4 5 5 5 5 5 6 7 7 6 6 6 5 4 3 2 -1 -3 -5 -6 -8 -9 -10 -9 -9 -8 -8 -7 -7 -7 -8 -8 -8 -8 -7 -6 -6 -5 -5 -5 -4 -4 -3 -3
4 4 3 3 2 3 4 4 4 4 4 5 6 7 6 6 6 5 4 4 2 0 -2 -5 -7 -9 -10 -10 -10 -10 -9 -9 -8 -8 -8 -9 -9 -9 -9 -8 -7 -7 -6 -6 -5 -5 -4 -4 -4
2 2 2 1 1 1 3 4 4 3 4 5 6 6 6 6 5 5 4 4 3 2 -1 -4 -7 -9 -10 -11 -10 -10 -10 -10 -9 -9 -9 -9 -10 -10 -9 -9 -8 -8 -7 -6 -6 -5 -5 -4 -4
1 1 0 0 0 0 2 3 4 4 4 5 5 6 5 5 5 5 5 4 4 3 1 -1 -5 -7 -9 -10 -10 -10 -10 -10 -9 -9 -9 -10 -10 -10 -10 -10 -10 -9 -8 -7 -6 -5 -5 -5 -5
2 1 1 1 0 0 1 3 4 4 4 4 5 5 5 5 5 5 5 4 4 3 2 1 -2 -5 -7 -8 -9 -9 -9 -9 -9 -9 -9 -10 -10 -11 -11 -11 -11 -10 -8 -7 -7 -6 -6 -6 -7
3 3 2 2 1 1 1 3 4 4 4 4 5 5 5 5 5 5 5 4 4 4 3 2 0 -2 -4 -6 -7 -8 -9 -9 -9 -9 -9 -9 -10 -10 -11 -11 -10 -10 -8 -8 -8 -8 -8 -8 -8
3 3 2 2 1 1 2 3 3 3 3 3 4 5 5 5 5 5 5 5 5 5 4 3 1 0 -1 -3 -5 -6 -7 -8 -8 -9 -9 -9 -9 -9 -10 -10 -9 -9 -8 -8 -9 -9 -9 -9 -9
3 2 2 1 2 2 2 2 2 2 1 1 2 3 4 4 4 4 4 5 5 5 4 3 2 0 -1 -2 -3 -4 -5 -6 -7 -8 -9 -9 -9 -8 -8 -8 -8 -8 -9 -9 -9 -9 -10 -10 -9
3 2 1 1 2 3 3 3 2 1 0 0 1 2 3 4 4 4 4 4 5 4 4 3 1 0 -0 -1 -2 -3 -4 -5 -6 -7 -8 -8 -8 -8 -7 -7 -7 -8 -9 -10 -9 -10 -10 -10 -9
2 2 1 1 1 2 2 2 2 1 0 0 0 1 2 3 4 4 4 4 4 4 4 3 2 1 0 -1 -2 -2 -3 -4 -5 -6 -7 -7 -7 -7 -7 -6 -6 -7 -8 -9 -9 -9 -10 -10 -9
2 2 1 1 1 1 1 1 1 1 0 0 0 1 1 2 3 3 3 4 4 4 4 4 3 3 2 1 -1 -2 -3 -3 -4 -5 -6 -6 -6 -6 -6 -6 -5 -4 -4 -5 -6 -7 -9 -10 -10
1 1 1 1 1 1 1 1 0 0 0 0 1 1 1 2 3 3 3 3 4 4 3 3 3 3 3 2 1 -1 -2 -2 -3 -4 -5 -5 -6 -6 -6 -6 -5 -3 -2 -2 -3 -5 -6 -9 -10
1 1 1 1 0 0 0 0 0 -0 -0 0 1 1 1 2 3 3 4 4 4 3 3 3 3 3 3 3 2 1 -0 -1 -2 -3 -4 -5 -5 -6 -6 -6 -5 -4 -2 -1 -2 -2 -3 -6 -9
0 0 0 0 0 -0 -0 -0 -0 -0 -0 0 1 1 1 2 3 4 4 4 4 4 4 4 4 3 3 3 2 2 1 -0 -1 -2 -2 -3 -4 -4 -5 -5 -5 -4 -2 -1 -0 1 0 -4 -8
-0 -0 -0 -0 -0 -0 -0 -0 -0 -0 -0 -0 0 1 1 2 3 4 4 4 4 4 4 4 4 4 3 3 3 2 1 0 -0 -1 -1 -1 -2 -3 -4 -5 -5 -3 -2 -0 1 3 2 -4 -8